Find Starlink 35709

NORAD ID: 66216 Int'l Des: 2025-244 Owner: SPXS Country: US Constellation: starlink operational
LEOCIRCULAR

实时位置

正在加载3D地球...

关于 Starlink 35709

正在加载描述...

即将过境

Passes for default location (London). Set your location on the main map for personalized predictions.

高度历史

Loading altitude history...

两行轨道根数

1 66216U 25244L 26107.13631066 .00006999 00000-0 24819-3 0 9990
2 66216 53.1595 51.4882 0001185 85.6010 274.5126 15.30202422 27540
Epoch: Apr 17, 2026 • Age: 16 hours

当前状态

高度 480.1 km
速度 7.63 km/s
星下点 49.38°N, 26.07°W
发射日期 Oct 28, 2025
运行时间 0.4 years
类型 internet

技术详情

分类 Payload
质量 575.00 kg
干质量 530.00 kg
总质量 575.00 kg
长度 0.30 m
直径 4.10 m
跨度 29.00 m
形状 Box + pan
制造商 SPXS
平台类型 Starlink V2MO
阶段状态 In Orbit
所有者/国家 SPXS/US

Most Searched